TimeEST,TemperatureF,Dew PointF,Humidity,Sea Level PressureIn,VisibilityMPH,Wind Direction,Wind SpeedMPH,Gust SpeedMPH,PrecipitationIn,Events,Conditions,WindDirDegrees,DateUTC
12:53 AM,27.0,19.0,72,30.25,10.0,West,9.2,19.6,N/A,,Overcast,270,2013-01-04 05:53:00
1:53 AM,27.0,19.9,75,30.24,10.0,WSW,9.2,-,N/A,,Overcast,250,2013-01-04 06:53:00
2:21 AM,26.6,17.6,69,30.21,10.0,WSW,16.1,23.0,N/A,,Overcast,250,2013-01-04 07:21:00
2:53 AM,25.0,17.1,72,30.27,10.0,WSW,11.5,20.7,N/A,,Overcast,250,2013-01-04 07:53:00
3:53 AM,24.1,16.0,71,30.27,10.0,West,12.7,20.7,N/A,,Overcast,260,2013-01-04 08:53:00
4:53 AM,24.1,15.1,69,30.26,10.0,WSW,10.4,-,N/A,,Overcast,250,2013-01-04 09:53:00
5:53 AM,24.1,15.1,69,30.25,10.0,West,12.7,-,N/A,,Overcast,260,2013-01-04 10:53:00
6:53 AM,23.0,15.1,72,30.27,10.0,WSW,11.5,20.7,N/A,,Overcast,250,2013-01-04 11:53:00
8:53 AM,19.9,12.9,74,30.29,10.0,WSW,10.4,-,N/A,,Clear,240,2013-01-04 13:53:00
9:53 AM,21.0,14.0,74,30.30,10.0,SW,13.8,-,N/A,,Clear,230,2013-01-04 14:53:00
10:53 AM,23.0,14.0,68,30.30,10.0,WSW,16.1,21.9,N/A,,Clear,240,2013-01-04 15:53:00
11:53 AM,24.1,15.1,69,30.29,-9999.0,WSW,15.0,-,N/A,,Clear,250,2013-01-04 16:53:00
12:53 PM,25.0,15.1,66,30.26,10.0,WSW,13.8,23.0,N/A,,Clear,250,2013-01-04 17:53:00
1:53 PM,27.0,15.1,61,30.24,10.0,WSW,15.0,26.5,N/A,,Clear,240,2013-01-04 18:53:00
2:53 PM,28.0,15.1,58,30.25,10.0,West,16.1,25.3,N/A,,Clear,260,2013-01-04 19:53:00
3:53 PM,27.0,16.0,63,30.26,10.0,WSW,11.5,-,N/A,,Clear,250,2013-01-04 20:53:00
4:53 PM,26.1,15.1,63,30.25,10.0,WSW,15.0,-,N/A,,Clear,240,2013-01-04 21:53:00
5:53 PM,25.0,16.0,69,30.25,10.0,SW,16.1,21.9,N/A,,Clear,230,2013-01-04 22:53:00
6:53 PM,24.1,15.1,69,30.27,10.0,SW,15.0,21.9,N/A,,Clear,230,2013-01-04 23:53:00
7:53 PM,24.1,15.1,69,30.28,10.0,WSW,11.5,-,N/A,,Clear,240,2013-01-05 00:53:00
8:53 PM,24.1,15.1,69,30.29,10.0,WSW,10.4,-,N/A,,Clear,250,2013-01-05 01:53:00
9:53 PM,25.0,15.1,66,30.30,10.0,WSW,10.4,-,N/A,,Clear,250,2013-01-05 02:53:00
10:53 PM,24.1,15.1,69,30.30,10.0,WSW,10.4,-,N/A,,Clear,250,2013-01-05 03:53:00
11:53 PM,24.1,16.0,71,30.32,10.0,WSW,10.4,-,N/A,,Clear,250,2013-01-05 04:53:00